Regional Weather Roundup
Issued by NWS New Orleans/Baton Rouge, LA

Home | Current Version | Previous Version | Text Only | Print | Product List | Glossary On
Versions: 1 2 3 4 5 6 7 8 9 10 11 12 13 14 15 16 17 18 19 20 21 22 23 24 25 26 27 28 29 30 31 32 33 34 35 36 37 38 39 40 41 42 43 44 45 46 47 48 49 50
569
ASUS44 KLIX 010511
RWRLIX
NEW ORLEANS REGIONAL WEATHER ROUNDUP
NATIONAL WEATHER SERVICE NEW ORLEANS LA
1200 AM CDT WED APR 01 2015

NOTE: "FAIR" INDICATES FEW OR NO CLOUDS BELOW 12,000 FEET WITH NO
      SIGNIFICANT WEATHER AND/OR OBSTRUCTIONS TO VISIBILITY.
      SKY/WX - SKY CONDITION AND SIGNIFICANT WEATHER.
      TMP - AIR TEMPERATURE.     DP    - DEWPOINT TEMPERATURE.
      RH  - RELATIVE HUMIDITY.   PRES  - PRESSURE.
      HI  - HEAT INDEX.          WCI   - WIND CHILL INDEX.

*  THESE STATIONS ARE NOT NWS OR FAA STATIONS AND ARE NOT UNDER
   NWS QUALITY CONTROL.

LAZ038-040-048-061>063-065>067-069-010600-
SOUTHEAST LOUISIANA

CITY           SKY/WX    TMP DP  RH WIND       PRES   REMARKS
N.O. AUDUBON     N/A     66  66 100 MISG        N/A
N.O. INTL ARPT PTCLDY    68  62  81 SW9       30.06F
N.O. LAKEFRONT CLEAR     70  63  78 SW7       30.07S
SLIDELL        PTCLDY    68  63  84 CALM      30.05F
BATON ROUGE    MOCLDY    67  63  87 SW8       30.05S
BOOTHVILLE     CLEAR     72  67  84 SW9       30.08F
BELLE CHASSE   CLEAR     61  59  93 CALM      30.06F
BOGALUSA*        N/A     67  59  75 SW5       30.06S
GALLIANO*      CLEAR     61  59  95 CALM      30.07F
NEW ROADS*       N/A     65  59  81 S7        30.05S
GONZALES*        N/A     63  63 100 S3        30.05F
HAMMOND*       MOCLDY    64  59  82 CALM      30.07S
HOUMA*         PTCLDY    60  60  99 CALM      30.06F FOG
PORT FOURCHON* CLEAR     72  68  88 SW6       30.11S

$$

MSZ070-080>082-010600-
SOUTHERN MISSISSIPPI

CITY           SKY/WX    TMP DP  RH WIND       PRES   REMARKS
MCCOMB         PTCLDY    64  58  80 S5        30.04S
GULFPORT       PTCLDY    68  61  78 SW3       30.04F
BILOXI         CLEAR     69  64  86 SW6       30.04F
PASCAGOULA     PTCLDY    68  65  90 SW6       30.05F

$$

COASTAL OBSERVATIONS
LAKE AND NEARSHORE STATIONS

STATION/POSITION TIME  TEMP    WIND        PRES    WAVE
                       AIR SEA DIR/SP/G            HT/PER
                 (UTC) (F)     (DEG/KT/KT) (MB)    (FT/S)
PASCAGOULA       0400   71     230/ 10/ 13 1017.6
WAVELAND YACHT   0400   70 70  240/  5/  7 1017.9
GRAND ISLE       0400   70 73  210/  4/  5 1018.3
SOUTHWEST PASS   0400   66 55  230/  8/  8 1019.2
NEW CANAL        0400   70     220/  4/  5 1018.5
SHELL BEACH      0400   69 71  240/  6/  7 1018.3

OFFSHORE STATIONS

STATION/POSITION TIME  TEMP    WIND        PRES    WAVE
                       AIR SEA DIR/SP/G            HT/PER
                 (UTC) (F)     (DEG/KT/KT) (MB)    (FT/S)
64 S DAUPHIN ISL 0450   72 72  240/  6/  6 1019.0    2/ 6

$$




USA.gov is the U.S. government's official web portal to all federal, state and local government web resources and services.